timestamp,surface_pressure_avg,surface_temp_avg,battery_voltage,lat,long
2024-04-20 00:09:01+00:00,286.1198,1.2,12.09,47.84626,-54.09684
2024-04-20 00:19:00+00:00,278.71299999999997,1.2,12.09,47.84626,-54.09684
2024-04-20 00:29:00+00:00,272.5348,1.19,12.09,47.84626,-54.09684
2024-04-20 00:39:00+00:00,269.4864,0.97,12.09,47.84626,-54.09684
2024-04-20 00:49:00+00:00,263.7764,0.9,12.09,47.84626,-54.09684
2024-04-20 00:59:00+00:00,257.9847,0.89,12.09,47.84626,-54.09684
2024-04-20 01:09:00+00:00,254.1898,0.8,12.09,47.84626,-54.09684
2024-04-20 01:19:00+00:00,250.7381,0.8,12.09,47.84626,-54.09684
2024-04-20 01:29:00+00:00,243.9731,0.8,12.09,47.84626,-54.09684
2024-04-20 01:39:00+00:00,237.5881,0.8,12.09,47.84626,-54.09684
2024-04-20 01:49:00+00:00,235.5365,0.8,12.09,47.84626,-54.09684
2024-04-20 01:59:00+00:00,234.3965,0.8,12.09,47.84626,-54.09684
2024-04-20 02:09:00+00:00,232.3364,0.8,12.09,47.84626,-54.09684
2024-04-20 02:19:00+00:00,231.4249,0.83,12.09,47.84626,-54.09684
2024-04-20 02:29:00+00:00,234.1614,0.88,12.09,47.84626,-54.09684
2024-04-20 02:39:00+00:00,232.3015,0.9,12.09,47.84626,-54.09684
2024-04-20 02:49:00+00:00,226.0597,0.9,12.09,47.84626,-54.09684
2024-04-20 02:59:00+00:00,226.0431,0.9,12.09,47.84626,-54.09684
2024-04-20 03:09:00+00:00,228.2831,0.9,12.09,47.84626,-54.09684
2024-04-20 03:19:00+00:00,223.9731,0.9,12.09,47.84626,-54.09684
2024-04-20 03:29:00+00:00,220.1031,0.9,12.09,47.84626,-54.09684
2024-04-20 03:39:00+00:00,220.2814,0.9,12.09,47.84626,-54.09684
2024-04-20 03:49:00+00:00,220.753,0.92,12.09,47.84626,-54.09684
2024-04-20 03:59:00+00:00,220.1464,0.93,12.09,47.84626,-54.09684
2024-04-20 04:09:00+00:00,219.5998,0.96,12.09,47.84626,-54.09684
2024-04-20 04:19:01+00:00,219.4181,0.98,12.09,47.84626,-54.09684
2024-04-20 04:29:01+00:00,219.2898,1.0,12.09,47.84626,-54.09684
2024-04-20 04:39:01+00:00,220.583,1.05,12.09,47.84626,-54.09684
2024-04-20 04:49:01+00:00,221.9698,1.08,12.09,47.84626,-54.09684
2024-04-20 04:59:01+00:00,224.7264,1.0,12.09,47.84626,-54.09684
2024-04-20 05:09:01+00:00,227.5447,1.0,12.09,47.84626,-54.09684
2024-04-20 05:19:00+00:00,229.8498,0.95,12.09,47.84626,-54.09684
2024-04-20 05:29:00+00:00,233.7697,0.9,12.09,47.84626,-54.09684
2024-04-20 05:39:00+00:00,239.0731,0.9,12.09,47.84626,-54.09684
2024-04-20 05:49:00+00:00,240.5331,0.9,12.09,47.84626,-54.09684
2024-04-20 05:59:00+00:00,242.9514,0.9,12.09,47.84626,-54.09684
2024-04-20 06:09:00+00:00,246.3631,0.9,12.09,47.84626,-54.09684
2024-04-20 06:19:01+00:00,251.7881,0.9,12.01,47.84626,-54.09684
2024-04-20 06:29:01+00:00,257.2698,0.9,12.01,47.84626,-54.09684
2024-04-20 06:39:01+00:00,263.9948,0.89,12.01,47.84626,-54.09684
2024-04-20 06:49:01+00:00,267.5681,0.88,12.01,47.84626,-54.09684
2024-04-20 06:59:01+00:00,271.3331,0.84,12.01,47.84626,-54.09684
2024-04-20 07:09:01+00:00,274.4531,0.81,12.01,47.84626,-54.09684
2024-04-20 07:19:00+00:00,282.728,0.8,12.01,47.84626,-54.09684
2024-04-20 07:29:00+00:00,289.0014,0.8,12.01,47.84626,-54.09684
2024-04-20 07:39:00+00:00,291.2346,0.8,12.01,47.84626,-54.09684
2024-04-20 07:49:00+00:00,292.1448,0.8,12.01,47.84626,-54.09684
2024-04-20 07:59:00+00:00,298.498,0.8,12.01,47.84626,-54.09684
2024-04-20 08:09:00+00:00,302.8363,0.8,12.01,47.84626,-54.09684
2024-04-20 08:19:00+00:00,303.9147,0.8,12.01,47.84626,-54.09684
2024-04-20 08:29:00+00:00,307.3281,0.79,12.01,47.84626,-54.09684
2024-04-20 08:39:00+00:00,312.5463,0.76,12.01,47.84626,-54.09684
2024-04-20 08:49:00+00:00,311.4498,0.79,12.01,47.84626,-54.09684
2024-04-20 08:59:00+00:00,309.263,0.79,12.01,47.84626,-54.09684
2024-04-20 09:09:00+00:00,312.9913,0.78,12.01,47.84626,-54.09684
2024-04-20 09:19:00+00:00,318.1464,0.79,12.09,47.84626,-54.09684
2024-04-20 09:29:00+00:00,319.4996,0.74,12.09,47.84626,-54.09684
2024-04-20 09:39:00+00:00,318.5081,0.78,12.09,47.84626,-54.09684
2024-04-20 09:49:00+00:00,320.1213,0.79,12.09,47.84626,-54.09684
2024-04-20 09:59:00+00:00,322.9946,0.79,12.09,47.84626,-54.09684
2024-04-20 10:09:00+00:00,322.398,0.79,12.09,47.84626,-54.09684
2024-04-20 10:19:00+00:00,317.9698,0.8,12.49,47.84626,-54.09684
2024-04-20 10:29:00+00:00,317.783,0.8,12.49,47.84626,-54.09684
2024-04-20 10:39:00+00:00,319.6329,0.8,12.49,47.84626,-54.09684
2024-04-20 10:49:00+00:00,317.4446,0.8,12.49,47.84626,-54.09684
2024-04-20 10:59:00+00:00,311.7363,0.8,12.49,47.84626,-54.09684
2024-04-20 11:09:00+00:00,311.5131,0.8,12.49,47.84626,-54.09684
2024-04-20 12:19:00+00:00,282.2414,0.82,12.89,47.84626,-54.09684
2024-04-20 12:29:00+00:00,282.1113,0.82,12.89,47.84626,-54.09684
2024-04-20 12:39:00+00:00,278.0581,0.83,12.89,47.84626,-54.09684
2024-04-20 12:49:00+00:00,269.4264,0.84,12.89,47.84626,-54.09684
2024-04-20 12:59:00+00:00,263.1848,0.85,12.89,47.84626,-54.09684
2024-04-20 13:09:00+00:00,265.7698,0.8,12.89,47.84626,-54.09684
2024-04-20 13:19:00+00:00,260.4714,0.83,12.97,47.84626,-54.09684
2024-04-20 13:29:00+00:00,247.7097,0.89,12.97,47.84626,-54.09684
2024-04-20 13:39:00+00:00,240.1898,0.9,12.97,47.84626,-54.09684
2024-04-20 13:49:00+00:00,240.6214,0.9,12.97,47.84626,-54.09684
2024-04-20 13:59:00+00:00,231.9681,0.9,12.97,47.84626,-54.09684
2024-04-20 14:09:00+00:00,216.6165,0.95,12.97,47.84626,-54.09684
2024-04-20 14:19:00+00:00,212.7498,1.0,12.89,47.84626,-54.09684
2024-04-20 14:29:00+00:00,212.8731,1.0,12.89,47.84626,-54.09684
2024-04-20 14:39:00+00:00,204.4048,1.0,12.89,47.84626,-54.09684
2024-04-20 14:49:00+00:00,197.3148,1.01,12.89,47.84626,-54.09684
2024-04-20 14:59:00+00:00,199.8848,1.06,12.89,47.84626,-54.09684
2024-04-20 15:09:00+00:00,197.9948,1.07,12.89,47.84626,-54.09684
2024-04-20 16:19:00+00:00,197.6215,1.1,12.73,47.84626,-54.09684
2024-04-20 16:29:00+00:00,200.1147,1.1,12.73,47.84626,-54.09684
2024-04-20 16:39:00+00:00,199.0198,1.1,12.73,47.84626,-54.09684
2024-04-20 16:49:00+00:00,199.2698,1.1,12.73,47.84626,-54.09684
2024-04-20 16:59:00+00:00,202.9865,1.1,12.73,47.84626,-54.09684
2024-04-20 17:09:00+00:00,206.2581,1.09,12.73,47.84626,-54.09684
2024-04-20 18:19:00+00:00,232.6765,0.9,12.49,47.84626,-54.09684
2024-04-20 18:29:00+00:00,235.6081,0.9,12.49,47.84626,-54.09684
2024-04-20 18:39:00+00:00,238.2264,0.9,12.49,47.84626,-54.09684
2024-04-20 18:49:00+00:00,244.3964,0.9,12.49,47.84626,-54.09684
2024-04-20 18:59:00+00:00,252.7464,0.92,12.49,47.84626,-54.09684
2024-04-20 19:09:00+00:00,257.83799999999997,0.97,12.49,47.84626,-54.09684
2024-04-20 19:19:00+00:00,262.3314,1.0,12.41,47.84626,-54.09684
2024-04-20 19:29:00+00:00,270.4247,0.97,12.41,47.84626,-54.09684
2024-04-20 19:39:00+00:00,278.2931,0.95,12.41,47.84626,-54.09684
2024-04-20 19:49:00+00:00,284.078,0.9,12.41,47.84626,-54.09684
2024-04-20 19:59:00+00:00,290.1248,0.9,12.41,47.84626,-54.09684
2024-04-20 20:09:00+00:00,294.828,0.9,12.41,47.84626,-54.09684
2024-04-20 20:19:00+00:00,298.7313,0.9,12.33,47.84626,-54.09684
2024-04-20 20:29:00+00:00,303.3264,0.9,12.33,47.84626,-54.09684
2024-04-20 20:39:00+00:00,307.6664,0.9,12.33,47.84626,-54.09684
2024-04-20 20:49:00+00:00,310.1346,0.9,12.33,47.84626,-54.09684
2024-04-20 20:59:00+00:00,313.0313,0.9,12.33,47.84626,-54.09684
2024-04-20 21:09:00+00:00,314.228,0.9,12.33,47.84626,-54.09684
2024-04-20 21:19:00+00:00,315.4297,0.9,12.33,47.84626,-54.09684
2024-04-20 21:29:00+00:00,320.7847,0.9,12.33,47.84626,-54.09684
2024-04-20 21:39:00+00:00,322.0914,0.9,12.33,47.84626,-54.09684
2024-04-20 21:49:00+00:00,320.193,0.8,12.33,47.84626,-54.09684
2024-04-20 21:59:00+00:00,321.568,0.8,12.33,47.84626,-54.09684
2024-04-20 22:09:00+00:00,325.2997,0.8,12.33,47.84626,-54.09684
2024-04-20 22:19:00+00:00,324.3213,0.8,12.17,47.84626,-54.09684
2024-04-20 22:29:00+00:00,320.4963,0.8,12.17,47.84626,-54.09684
2024-04-20 22:39:00+00:00,319.1263,0.8,12.17,47.84626,-54.09684
2024-04-20 22:49:00+00:00,316.6197,0.82,12.17,47.84626,-54.09684
2024-04-20 22:59:00+00:00,316.7364,0.86,12.17,47.84626,-54.09684
2024-04-20 23:09:00+00:00,313.068,0.88,12.17,47.84626,-54.09684
2024-04-20 23:19:00+00:00,310.513,0.89,12.17,47.84626,-54.09684
2024-04-20 23:29:00+00:00,307.803,0.9,12.17,47.84626,-54.09684
2024-04-20 23:39:00+00:00,306.5496,0.9,12.17,47.84626,-54.09684
2024-04-20 23:49:00+00:00,300.8497,0.9,12.17,47.84626,-54.09684
2024-04-20 23:59:00+00:00,294.9597,1.09,12.17,47.84626,-54.09684
